This is the latest recevied weather packets stored in our database for station/object KD5UMO-1. If no packets are shown the sender has not sent any weather packets the latest 10 day(s).
| Time | Temp. | Humidity | Pressure | Rain* | Wind** | Luminosity | Snow |
|---|---|---|---|---|---|---|---|
| 1777245600 | 29.44° C | 68% | 1005.3 hPa | 0 mm | - | 179 W/m² | - |
| 1777245296 | 29.44° C | 68% | 1005.2 hPa | 0 mm | - | 192 W/m² | - |
| 1777244992 | 29.44° C | 67% | 1005.3 hPa | 0 mm | - | 143 W/m² | - |
| 1777244688 | 28.89° C | 68% | 1005.1 hPa | 0 mm | - | 133 W/m² | - |
| 1777244384 | 29.44° C | 67% | 1005 hPa | 0 mm | - | 217 W/m² | - |
| 1777244081 | 29.44° C | 67% | 1005.2 hPa | 0 mm | - | 256 W/m² | - |
| 1777243779 | 29.44° C | 67% | 1005.2 hPa | 0 mm | - | 268 W/m² | - |
| 1777243476 | 29.44° C | 67% | 1005.4 hPa | 0 mm | - | 159 W/m² | - |
| 1777243171 | 30° C | 66% | 1005.2 hPa | 0 mm | - | 300 W/m² | - |
| 1777242867 | 29.44° C | 67% | 1005.5 hPa | 0 mm | - | 199 W/m² | - |
| 1777242566 | 28.89° C | 68% | 1005.6 hPa | 0 mm | - | 160 W/m² | - |
| 1777242261 | 29.44° C | 67% | 1005.6 hPa | 0 mm | - | 323 W/m² | - |
| 1777241959 | 30° C | 66% | 1005.6 hPa | 0 mm | - | 366 W/m² | - |
| 1777241656 | 30° C | 66% | 1005.7 hPa | 0 mm | - | 332 W/m² | - |
| 1777241352 | 30.56° C | 65% | 1005.6 hPa | 0 mm | - | 399 W/m² | - |
| 1777241050 | 30° C | 65% | 1005.7 hPa | 0 mm | - | 436 W/m² | - |
| 1777240748 | 30° C | 66% | 1005.7 hPa | 0 mm | - | 429 W/m² | - |
| 1777240446 | 30° C | 65% | 1005.8 hPa | 0 mm | - | 302 W/m² | - |
| 1777240142 | 30.56° C | 64% | 1006 hPa | 0 mm | - | 319 W/m² | - |
| 1777239841 | 29.44° C | 66% | 1006 hPa | 0 mm | - | 559 W/m² | - |
| 1777239536 | 30° C | 65% | 1006 hPa | 0 mm | - | 192 W/m² | - |
| 1777239233 | 30° C | 64% | 1006.2 hPa | 0 mm | - | 583 W/m² | - |
| 1777238931 | 30° C | 64% | 1006.2 hPa | 0 mm | - | 571 W/m² | - |
| 1777238628 | 28.89° C | 67% | 1006.2 hPa | 0 mm | - | 578 W/m² | - |
| 1777238324 | 28.89° C | 67% | 1006.3 hPa | 0 mm | - | 407 W/m² | - |
* Rain latest hour (hover to see other rain measurements)
** Current wind speed in m/s (hover to see current wind gust speed)